Date String (YYYY-MM-DD hh:mm:ss) UTC,Instrument flags,absolute air pressure of the measurement (hPa),sample flow rate (lpm),inlet stack bypass flow (lpm),air temperature of the measurement (°C),ambient temperature measured by the external sensor (°C),aerosol sample conditioner tube jacket temperature (°C),OPC LED temperature (°C),internal box temperature (°C),relative humidity of the measurement (%),span deviation,mass concentration of particles derived from Lorenz-Mie calculation of OPC scattering (μg/m³),mass concentration of particles derived from Lorenz-Mie calculation of OPC scattering (μg/m³),mass concentration of particles derived from Lorenz-Mie calculation of OPC scattering (μg/m³)
DateTimeUTC,F1_M11,P_M11,Q1_M11,Q2_M11,T1_M11,T2_M11,T3_M11,T4_M11,T5_M11,U1_M11,ZSPAN_M11,X0_M11,X2_M11,X1_M11
2024-05-29 21:00:00,SystemResetWarning,0828.2,5.00,000.00,029.3,028.1,000.0,037.7,031.0,015.1,0000.0,0014.85,0004.01,0003.12
2024-05-29 21:01:00,SystemResetWarning,0828.3,5.00,000.00,029.4,028.3,000.0,037.7,031.1,014.0,0000.0,0015.50,0003.95,0003.07
2024-05-29 21:02:00,SystemResetWarning,0828.4,5.00,000.00,029.4,028.5,000.0,037.7,031.2,014.0,0000.0,0015.16,0003.86,0002.97
2024-05-29 21:03:00,SystemResetWarning,0828.4,5.01,000.00,029.5,028.7,000.0,037.7,031.3,014.0,0000.0,0014.88,0003.77,0002.85
2024-05-29 21:04:00,SystemResetWarning,0828.3,5.00,000.00,029.6,028.9,000.0,037.8,031.3,014.4,0000.0,0014.65,0003.67,0002.75
2024-05-29 21:05:00,SystemResetWarning,0828.3,5.00,000.00,029.6,029.0,000.0,037.8,031.4,015.0,0000.0,0015.47,0003.57,0002.67
2024-05-29 21:06:00,SystemResetWarning,0828.2,5.00,000.00,029.7,029.1,000.0,037.8,031.5,015.8,0000.0,0016.07,0003.55,0002.60
2024-05-29 21:07:00,SystemResetWarning,0828.2,4.99,000.00,029.7,029.2,000.0,037.8,031.6,017.4,0000.0,0017.15,0003.55,0002.54
2024-05-29 21:08:00,SystemResetWarning,0828.1,4.99,000.00,029.8,029.3,000.0,037.9,031.7,020.0,0000.0,0022.24,0003.70,0002.53
2024-05-29 21:09:00,SystemResetWarning,0828.1,5.01,000.00,029.8,029.4,000.0,037.9,031.7,019.8,0000.0,0024.13,0003.95,0002.53
2024-05-29 21:10:00,SystemResetWarning,0828.1,5.02,000.00,029.9,029.5,000.0,038.0,031.7,018.9,0000.0,0024.26,0004.07,0002.55
2024-05-29 21:11:00,SystemResetWarning,0828.2,4.99,000.00,029.9,029.5,000.0,038.0,031.8,018.4,0000.0,0023.54,0004.12,0002.58
2024-05-29 21:12:00,SystemResetWarning,0828.2,4.98,000.00,030.0,029.1,000.0,038.0,031.5,018.6,0000.0,0022.60,0004.14,0002.62
2024-05-29 21:13:00,SystemResetWarning,0828.1,5.00,000.00,029.6,026.7,000.0,038.1,030.4,020.0,0000.0,0022.83,0004.18,0002.68
2024-05-29 21:14:00,SystemResetWarning,0828.0,5.01,000.00,029.3,026.4,000.0,038.1,030.2,020.8,0000.0,0023.00,0004.27,0002.76
2024-05-29 21:15:00,SystemResetWarning,0828.1,5.00,000.00,029.3,026.7,000.0,038.0,030.3,019.9,0000.0,0022.62,0004.34,0002.82
2024-05-29 21:16:00,SystemResetWarning,0828.0,5.00,000.00,029.3,027.1,000.0,037.9,030.6,019.8,0000.0,0021.77,0004.42,0002.89
2024-05-29 21:17:00,SystemResetWarning,0827.9,5.00,000.00,029.3,027.5,000.0,037.8,030.8,019.2,0000.0,0021.07,0004.42,0002.92
2024-05-29 21:18:00,SystemResetWarning,0827.8,5.00,000.00,029.3,027.8,000.0,037.8,031.0,017.7,0000.0,0020.39,0004.41,0002.96
2024-05-29 21:19:00,SystemResetWarning,0827.8,5.00,000.00,029.4,028.1,000.0,037.8,031.1,016.8,0000.0,0015.86,0004.23,0002.92
2024-05-29 21:20:00,SystemResetWarning,0827.8,5.00,000.00,029.4,028.4,000.0,037.8,031.2,016.4,0000.0,0011.34,0003.91,0002.84
2024-05-29 21:21:00,SystemResetWarning,0827.7,5.00,000.00,029.5,028.6,000.0,037.8,031.2,017.0,0000.0,0010.13,0003.72,0002.75
2024-05-29 21:22:00,SystemResetWarning,0827.7,5.00,000.00,029.5,028.7,000.0,037.8,031.3,016.7,0000.0,0009.60,0003.63,0002.69
2024-05-29 21:23:00,SystemResetWarning,0827.7,5.00,000.00,029.6,028.9,000.0,037.8,031.4,016.6,0000.0,0009.35,0003.57,0002.63
2024-05-29 21:24:00,SystemResetWarning,0827.7,5.00,000.00,029.7,029.0,000.0,037.8,031.5,016.6,0000.0,0009.06,0003.58,0002.56
2024-05-29 21:25:00,SystemResetWarning,0827.7,5.00,000.00,029.7,029.1,000.0,037.8,031.6,016.1,0000.0,0008.84,0003.50,0002.50
2024-05-29 21:26:00,SystemResetWarning,0827.6,5.00,000.00,029.8,029.2,000.0,037.9,031.6,017.5,0000.0,0008.64,0003.42,0002.43
2024-05-29 21:27:00,SystemResetWarning,0827.5,5.00,000.00,029.8,029.3,000.0,037.9,031.7,016.3,0000.0,0008.51,0003.37,0002.37
2024-05-29 21:28:00,SystemResetWarning,0827.5,5.00,000.00,029.9,029.4,000.0,037.9,031.7,015.8,0000.0,0008.95,0003.31,0002.32
2024-05-29 21:29:00,SystemResetWarning,0827.5,5.00,000.00,029.9,029.5,000.0,038.0,031.8,016.0,0000.0,0009.82,0003.28,0002.27
2024-05-29 21:30:00,SystemResetWarning,0827.6,5.00,000.00,030.0,029.6,000.0,038.0,031.8,016.0,0000.0,0009.23,0003.25,0002.24
2024-05-29 21:31:00,SystemResetWarning,0827.6,4.99,000.00,030.0,029.6,000.0,038.0,031.9,015.8,0000.0,0009.15,0003.24,0002.21
2024-05-29 21:32:00,SystemResetWarning,0827.5,4.99,000.00,030.1,029.5,000.0,038.1,031.8,016.0,0000.0,0009.17,0003.24,0002.17
2024-05-29 21:33:00,SystemResetWarning,0827.5,5.00,000.00,029.9,027.6,000.0,038.2,030.9,015.9,0000.0,0009.08,0003.21,0002.13
2024-05-29 21:34:00,SystemResetWarning,0827.4,5.02,000.00,029.5,026.6,000.0,038.2,030.4,015.9,0000.0,0009.36,0003.20,0002.11
2024-05-29 21:35:00,SystemResetWarning,0827.5,5.01,000.00,029.4,027.0,000.0,038.1,030.4,016.7,0000.0,0009.36,0003.13,0002.10
2024-05-29 21:36:00,SystemResetWarning,0827.5,4.99,000.00,029.4,027.3,000.0,038.0,030.7,016.0,0000.0,0009.61,0003.15,0002.09
2024-05-29 21:37:00,SystemResetWarning,0827.6,5.00,000.00,029.4,027.7,000.0,037.9,030.9,015.5,0000.0,0009.58,0003.11,0002.06
2024-05-29 21:38:00,SystemResetWarning,0827.7,5.01,000.00,029.5,028.0,000.0,037.9,031.1,015.6,0000.0,0009.32,0002.99,0002.04
2024-05-29 21:39:00,SystemResetWarning,0827.7,5.00,000.00,029.5,028.3,000.0,037.9,031.2,016.5,0000.0,0008.85,0002.96,0002.02
2024-05-29 21:40:00,SystemResetWarning,0827.6,4.99,000.00,029.6,028.5,000.0,037.9,031.3,016.0,0000.0,0007.54,0002.97,0002.01
2024-05-29 21:41:00,SystemResetWarning,0827.6,5.00,000.00,029.6,028.7,000.0,037.9,031.4,016.3,0000.0,0007.76,0002.91,0002.00
2024-05-29 21:42:00,SystemResetWarning,0827.5,5.01,000.00,029.7,028.9,000.0,037.9,031.4,016.0,0000.0,0008.22,0002.96,0002.00
2024-05-29 21:43:00,SystemResetWarning,0827.4,5.00,000.00,029.7,029.0,000.0,037.9,031.5,015.8,0000.0,0008.15,0002.95,0001.99
2024-05-29 21:44:00,SystemResetWarning,0827.4,5.00,000.00,029.8,029.1,000.0,037.9,031.5,015.9,0000.0,0008.09,0002.93,0001.97
2024-05-29 21:45:00,SystemResetWarning,0827.3,5.00,000.00,029.8,029.2,000.0,037.9,031.6,015.9,0000.0,0007.80,0002.91,0001.95
2024-05-29 21:46:00,SystemResetWarning,0827.3,5.00,000.00,029.9,029.3,000.0,038.0,031.7,015.5,0000.0,0007.20,0002.89,0001.93
2024-05-29 21:47:00,SystemResetWarning,0827.2,5.00,000.00,029.9,029.4,000.0,038.0,031.7,015.4,0000.0,0006.52,0002.85,0001.93
2024-05-29 21:48:00,SystemResetWarning,0827.3,4.99,000.00,030.0,029.5,000.0,038.0,031.8,014.9,0000.0,0006.55,0002.89,0001.93
2024-05-29 21:49:00,SystemResetWarning,0827.3,4.99,000.00,030.0,029.6,000.0,038.1,031.9,015.2,0000.0,0006.90,0002.98,0001.93
2024-05-29 21:50:00,SystemResetWarning,0827.2,4.99,000.00,030.0,028.9,000.0,038.1,031.5,015.4,0000.0,0006.97,0003.01,0001.93
2024-05-29 21:51:00,SystemResetWarning,0827.1,5.00,000.00,029.7,026.9,000.0,038.2,030.5,014.9,0000.0,0006.79,0002.97,0001.94
2024-05-29 21:52:00,SystemResetWarning,0827.1,5.02,000.00,029.5,026.8,000.0,038.2,030.4,015.6,0000.0,0006.68,0002.98,0001.92
2024-05-29 21:53:00,SystemResetWarning,0827.1,5.00,000.00,029.4,027.2,000.0,038.1,030.6,015.3,0000.0,0006.64,0002.94,0001.92
2024-05-29 21:54:00,SystemResetWarning,0827.2,5.00,000.00,029.4,027.5,000.0,038.0,030.8,013.6,0000.0,0006.56,0002.89,0001.92
2024-05-29 21:55:00,SystemResetWarning,0827.1,5.00,000.00,029.5,027.9,000.0,037.9,031.0,013.5,0000.0,0007.84,0002.84,0001.93
2024-05-29 21:56:00,SystemResetWarning,0827.1,5.00,000.00,029.5,028.2,000.0,037.9,031.1,013.4,0000.0,0008.35,0002.85,0001.93
2024-05-29 21:57:00,SystemResetWarning,0827.2,5.00,000.00,029.6,028.5,000.0,037.9,031.2,014.3,0000.0,0008.74,0002.89,0001.94
2024-05-29 21:58:00,SystemResetWarning,0827.1,5.01,000.00,029.6,028.7,000.0,037.9,031.3,014.2,0000.0,0009.07,0002.87,0001.95
2024-05-29 21:59:00,SystemResetWarning,0827.1,5.00,000.00,029.7,028.9,000.0,037.9,031.4,013.6,0000.0,0009.40,0002.81,0001.93
